Home > Weather > Fulda > Past weeks

Flag for Germany Past Weather in Fulda, Hesse, Germany — Yesterday and Last 2 Weeks

Now
53 °F

Fog.


Feels Like: 53 °F
Forecast: 48 / 76 °F
Wind: 2 mph from Northwest

Location: Fritzlar

Current Time: Aug 30, 2016 at 7:15:45 AM

Latest Report: Aug 30, 2016 at 6:00 AM


Visibility: 11 mi

Pressure: 30.29 "Hg

Humidity: 94%

Dew Point: 51 °F

Location of FuldaLocation

Past Weather in Fulda — Graph

°F

Fulda Temperature Yesterday

Maximum temperature yesterday: 71 °F (at 1:00 PM)
Minimum temperature yesterday: 56 °F (at 7:00 AM)
Average temperature yesterday: 65 °F

High & Low Weather Summary for the Past Weeks

 TemperatureHumidityPressure
High93 °F (Aug 27, 4:00 PM)98% (Aug 29, 6:00 AM)30.37 "Hg (Aug 29, 6:00 AM)
Low44 °F (Aug 18, 7:00 AM)24% (Aug 25, 6:00 PM)29.76 "Hg (Aug 18, 6:00 PM)
Average66 °F67%30.06 "Hg
* Reported Aug 15 6:00 AM — Aug 30 6:00 AM, Fulda, Weather by CustomWeather, © 2016

Note: Actual official high and low records may vary slightly from our data, if they occured in-between our weather recording intervals... More about our weather records

Advertising

Fulda Weather History for the Previous 24 Hours

Scroll right to see more
 ConditionsComfort  
Time TempWeatherWind HumidityBarometerVisibility
6:00 AM
Tue, Aug 30
53 °FFog.2 mph94%30.29 "Hg11 mi
4:00 AM57 °FOvercast.2 mph90%30.27 "Hg12 mi
3:00 AM56 °FPassing clouds.3 mph91%30.26 "Hg12 mi
1:00 AM57 °FPassing clouds.3 mph88%30.25 "Hg12 mi
12:00 AM61 °FOvercast.2 mph82%30.24 "Hg12 mi
10:00 PM
Mon, Aug 29
59 °FPassing clouds.N/A86%30.19 "Hg12 mi
9:00 PM66 °FPassing clouds.2 mph68%30.16 "Hg16 mi
7:00 PM68 °FOvercast.2 mph63%30.12 "Hg22 mi
6:00 PM67 °FOvercast.6 mph63%30.12 "Hg22 mi
4:00 PM71 °FOvercast.5 mph59%30.09 "Hg25 mi
3:00 PM69 °FOvercast.5 mph64%30.09 "Hg28 mi
1:00 PM71 °FOvercast.6 mph55%30.07 "Hg31 mi
12:00 PM71 °FPartly sunny.5 mph59%30.07 "Hg31 mi
10:00 AM65 °FPartly sunny.N/A77%30.05 "Hg28 mi
9:00 AM63 °FOvercast.2 mph86%30.05 "Hg25 mi
7:00 AM56 °FFog.N/A98%30.03 "Hg0 mi
Weather by CustomWeather, © 2016

See weather overviewHow to use our weather pages